Wind_Speed
6 7 17 21 12 6 12 8 12 3 6 3 11 14 17 13 11 15 13 10 10 13 26 18 28 32 29 32 34 37 40 41 40 39 37 35 36 37 35 34 33 32 32 31
6 21 12 6 11 15 15 6 7 2 4 5 10 16 16 15 13 16 17 14 12 11 13 18 24 27 33 37 40 39 40 40 44 41 42 34 33 38 40 38 37 35 35 34
9 3 18 10 11 17 21 20 9 7 1 5 9 20 13 15 19 20 18 17 19 19 17 15 16 29 33 36 42 41 42 44 44 42 36 33 26 30 31 41 40 39 38 37
11 19 11 17 17 14 20 14 10 9 1 9 3 13 8 7 15 17 21 20 21 21 17 16 16 23 31 39 35 40 42 43 44 43 36 37 34 31 33 30 33 41 41 39
6 5 22 16 17 11 8 5 12 10 8 1 8 7 4 6 12 12 19 20 21 23 19 19 18 29 35 35 38 44 41 41 42 44 43 39 36 34 29 29 31 37 41 41
9 2 8 7 9 15 1 1 3 3 4 9 15 8 14 11 14 8 13 15 17 19 20 18 27 28 28 34 36 36 38 43 43 46 47 42 40 34 30 33 34 34 37 39
11 17 2 6 12 11 15 6 3 3 5 12 9 11 22 15 6 9 11 11 10 10 9 10 11 15 26 31 37 37 39 39 42 45 45 45 44 40 38 38 37 32 33 32
13 10 16 6 16 13 17 13 4 5 7 4 2 12 6 11 13 16 15 14 8 10 10 11 14 18 25 29 33 37 38 38 40 45 46 45 44 38 40 39 37 39 38 39
11 11 9 9 4 7 5 13 5 4 2 0 4 9 8 12 11 12 17 9 15 13 9 11 9 17 22 25 32 38 37 37 38 42 42 42 41 40 39 39 40 41 40 37
2 5 9 9 8 10 7 9 4 3 3 4 7 6 12 12 12 10 15 11 9 10 10 9 9 13 24 30 32 34 37 38 42 43 42 41 43 45 41 37 39 39 39 38
7 3 2 5 13 17 6 5 5 3 3 4 7 8 7 15 14 9 8 10 8 10 9 8 7 12 14 20 27 31 33 33 34 36 38 37 38 40 40 38 39 40 38 36
6 2 6 18 2 17 17 14 13 6 9 4 3 21 2 9 7 6 10 12 6 9 9 8 5 7 9 12 19 27 30 33 36 38 37 38 37 37 37 37 37 37 38 36
9 4 2 2 2 2 9 16 16 17 2 14 7 20 6 6 7 5 8 12 10 7 8 5 3 6 9 13 14 20 25 30 33 34 36 35 35 34 34 36 36 36 36 35
12 5 5 6 2 4 9 15 14 16 8 18 14 33 20 12 6 9 7 7 9 7 8 6 6 5 9 12 12 13 19 23 25 27 30 32 34 35 36 35 33 32 32 31
6 4 7 11 3 3 1 16 19 19 20 11 31 30 23 18 13 17 7 6 9 9 9 7 7 7 7 10 9 10 12 18 22 24 25 28 27 26 26 27 26 25 26 27
4 2 2 2 4 10 7 9 17 25 25 23 30 29 27 13 12 20 15 7 9 11 10 9 8 8 7 11 13 12 13 15 16 18 20 19 18 19 19 20 20 21 22 23
6 5 2 3 5 4 5 20 17 17 23 25 24 39 36 19 19 21 23 20 8 9 11 8 8 8 9 14 14 15 15 14 16 15 14 14 14 14 15 14 15 15 16 16
4 4 2 2 2 5 6 4 18 24 22 25 27 32 26 20 17 14 11 10 10 9 10 9 7 5 8 9 11 10 11 14 15 16 15 14 14 15 15 16 16 16 16 17
4 4 2 3 4 8 16 4 7 10 18 23 28 32 29 20 14 29 17 11 17 14 10 8 11 10 9 9 8 10 11 13 14 15 14 14 16 17 16 16 16 15 14 14
4 4 3 2 3 8 5 5 3 7 15 11 22 28 24 5 9 23 21 15 10 10 11 13 16 13 13 13 11 11 13 12 13 13 13 13 15 15 13 12 12 11 9 7
5 5 13 11 5 9 7 4 6 5 7 8 2 10 12 10 17 25 13 8 11 9 12 12 15 13 12 12 11 12 12 13 12 10 9 9 9 9 9 9 10 9 9 8
8 8 5 8 4 13 6 2 11 4 10 8 10 7 8 11 18 19 21 7 6 6 5 11 13 12 8 7 8 11 12 9 7 6 5 6 7 8 9 9 11 11 11 11
4 7 5 10 8 5 4 3 5 7 3 7 11 15 14 14 11 12 9 6 5 5 7 9 13 10 5 4 5 8 6 4 4 5 5 5 5 5 6 9 10 11 10 9
3 3 3 0 2 1 5 2 9 9 10 11 9 14 10 11 13 10 7 5 2 3 4 4 9 10 7 6 6 6 4 3 7 8 8 9 10 11 10 11 10 7 7 7
4 5 5 7 1 2 3 3 7 10 10 14 13 9 13 12 12 6 5 5 5 6 8 8 6 8 9 6 6 5 5 7 8 10 12 14 16 17 18 16 11 12 8 6
4 4 4 5 3 1 6 6 13 11 11 11 15 16 13 9 8 5 6 6 6 6 7 9 9 6 8 8 6 5 5 8 13 15 16 18 19 21 23 24 26 22 20 19
Wind_Direction
189 197 217 210 219 243 265 214 232 181 207 175 247 250 257 248 244 251 248 243 242 236 247 235 228 225 220 222 217 220 221 221 220 215 216 222 224 229 230 232 233 232 234 234
197 226 224 202 215 237 262 248 233 286 185 208 267 262 250 248 246 234 246 245 239 236 245 238 220 217 216 219 220 218 219 218 222 217 218 217 221 230 232 233 234 232 233 234
220 281 207 211 217 220 234 251 247 249 306 235 289 280 245 251 244 243 244 237 242 237 239 237 216 215 216 214 218 214 215 218 220 217 215 216 221 227 231 232 235 234 234 235
238 232 190 210 229 220 240 226 249 246 180 271 152 286 250 266 242 222 238 231 232 235 234 232 223 219 214 220 216 217 218 215 219 216 210 210 214 219 224 225 229 235 236 237
205 227 206 217 216 213 227 192 206 202 202 301 245 275 265 206 256 241 242 235 226 228 224 224 224 224 223 222 215 221 215 215 214 216 213 210 215 221 222 223 224 234 240 239
217 246 189 216 194 210 177 229 162 194 201 245 240 227 264 237 240 235 242 237 224 228 228 227 230 230 224 220 215 213 210 216 214 216 215 212 215 214 212 216 223 227 234 241
220 225 186 172 220 213 193 177 228 177 193 236 184 208 245 289 266 233 236 240 228 224 224 220 211 210 215 208 209 209 208 211 212 215 215 213 217 215 216 217 219 221 226 226
212 213 192 176 211 213 213 213 219 229 206 258 124 234 237 237 269 257 250 252 253 222 214 215 221 218 217 212 206 204 205 208 208 212 215 216 218 215 218 220 221 225 229 233
200 222 175 172 165 154 163 212 184 141 28 188 232 284 277 252 260 262 261 247 251 251 232 226 218 220 220 216 210 207 206 207 207 210 213 214 214 216 219 221 228 232 236 238
234 193 198 191 181 211 215 143 169 180 218 248 243 251 245 309 290 247 252 253 259 261 249 225 219 218 227 226 223 215 212 207 209 213 212 213 216 222 222 223 226 230 237 239
207 212 172 150 204 194 156 198 209 146 200 224 277 263 209 224 256 279 287 268 267 275 270 255 245 223 226 227 224 223 216 211 208 211 213 213 217 220 223 223 231 236 237 239
153 242 189 211 356 216 217 213 197 218 222 259 286 263 187 231 275 320 293 290 285 270 280 278 273 243 219 217 212 218 220 217 219 219 215 216 219 221 222 226 230 235 239 241
170 206 151 118 322 308 217 218 220 227 355 230 228 262 215 262 282 291 281 303 310 324 315 297 274 236 239 233 217 215 217 220 221 220 219 219 220 223 226 232 236 236 239 240
151 175 210 221 207 135 207 216 218 222 225 248 243 267 265 272 257 293 282 284 308 311 294 295 296 267 256 238 226 218 217 216 218 218 220 222 224 227 230 233 235 238 240 238
186 224 222 226 208 10 330 216 217 229 240 235 252 255 258 254 273 297 252 305 303 310 304 289 281 277 256 243 218 208 208 208 210 213 218 223 227 230 234 238 240 243 244 243
171 164 170 258 265 241 242 249 228 224 231 238 254 273 250 262 295 291 278 263 277 291 277 279 272 264 252 232 219 207 205 200 197 200 208 215 219 222 227 233 236 237 238 239
147 140 127 255 204 177 247 229 226 236 229 225 240 247 263 262 256 258 275 290 245 253 280 270 254 238 237 234 221 217 211 201 198 201 200 201 206 210 213 214 216 218 220 223
121 112 118 276 56 243 253 251 208 214 227 229 246 260 257 259 267 258 233 244 256 249 267 268 258 242 251 233 217 203 197 195 195 194 194 196 200 207 206 203 205 206 206 209
153 139 179 201 199 299 289 186 161 179 249 229 233 248 257 264 295 277 252 216 239 240 232 232 236 230 232 223 211 202 189 195 198 199 201 203 204 204 203 200 198 204 207 209
155 115 151 140 193 225 328 201 152 100 271 210 222 246 258 191 244 261 261 244 242 235 223 220 211 202 219 221 210 201 201 200 203 200 202 206 210 208 208 209 203 199 191 186
177 188 220 225 248 276 235 209 155 132 259 23 86 255 252 215 232 258 280 224 236 246 207 215 194 194 205 207 214 202 192 195 193 192 195 203 214 219 210 204 192 197 195 195
162 168 194 209 220 265 224 42 189 299 348 345 359 348 324 277 263 259 268 255 211 191 150 182 163 158 175 201 204 188 180 188 189 191 191 188 193 196 189 189 188 198 207 209
199 187 181 183 211 245 243 38 64 8 328 350 332 330 323 308 301 301 283 247 222 177 138 153 149 138 127 134 178 162 175 189 193 186 173 159 157 161 167 168 185 190 199 204
253 214 201 345 157 329 351 64 24 2 340 335 335 318 310 311 319 312 323 334 34 66 82 104 128 114 89 72 92 126 144 163 173 163 145 139 136 136 152 164 166 172 177 178
205 146 196 256 135 256 196 113 3 353 348 341 334 336 324 322 327 338 353 2 39 30 51 83 83 98 97 97 97 110 137 154 152 148 149 147 143 139 124 114 125 127 115 143
186 194 192 250 115 265 262 359 350 342 344 340 330 332 340 327 338 352 39 14 44 53 51 73 88 93 99 98 87 97 131 167 164 157 149 143 142 139 123 110 91 95 103 98
Height
813 815 808 804 812 814 815 816 816 811 811 813 815 811 796 788 789 789 790 793 792 790 780 786 788 790 795 797 802 804 808 811 818 822 826 830 832 835 838 840 842 846 849 852
812 799 801 808 813 814 816 818 814 812 808 817 815 804 795 786 782 779 778 780 784 782 777 778 780 784 786 787 790 796 799 805 808 812 817 822 825 828 831 834 836 838 842 845
798 798 799 804 807 813 812 814 814 813 813 813 811 789 790 771 771 770 765 765 766 767 768 768 771 773 776 779 779 783 789 794 799 805 812 817 821 823 825 826 828 831 835 839
799 797 799 801 804 806 811 803 808 810 812 814 810 783 773 766 761 763 755 755 753 754 756 758 760 762 763 764 772 776 780 786 790 797 802 805 808 812 814 818 821 824 829 832
793 792 794 799 797 805 800 802 803 808 812 817 810 810 766 759 758 756 743 737 738 738 743 746 747 748 749 756 760 764 771 776 781 787 791 795 801 803 808 812 815 817 821 825
791 791 790 789 792 795 800 808 805 808 806 810 798 805 750 751 747 745 734 728 727 728 729 732 734 739 742 744 751 757 762 765 771 775 781 785 789 794 799 803 805 809 813 816
786 789 790 788 798 796 802 805 807 807 808 798 789 800 747 739 743 738 731 725 722 725 728 728 729 731 732 735 739 745 750 754 760 766 770 774 778 783 787 791 795 800 803 805
783 782 782 783 781 784 792 796 798 800 800 787 797 778 747 734 726 723 722 717 715 719 719 718 718 721 722 724 729 734 738 743 749 754 758 764 769 775 778 782 785 789 792 794
774 774 771 776 780 781 787 789 788 802 827 809 792 770 742 733 728 726 717 717 711 709 711 710 709 712 714 717 720 723 728 732 739 744 750 755 760 765 769 772 775 779 783 787
770 771 772 775 780 780 781 782 791 793 791 799 775 771 743 734 721 717 713 715 709 707 705 703 703 704 706 709 713 717 721 723 727 734 740 745 750 755 760 765 767 772 776 780
772 768 775 776 769 766 778 780 778 782 787 787 772 744 735 723 712 714 712 710 702 703 698 695 697 697 700 703 707 710 714 718 724 727 734 739 743 748 753 757 760 764 769 772
763 773 766 763 770 762 763 763 771 773 778 787 786 731 716 722 718 719 717 710 703 704 697 694 693 697 697 699 701 704 709 713 717 722 727 731 736 741 746 750 753 757 760 764
756 774 764 768 776 771 762 758 755 760 772 763 770 712 707 717 719 718 719 714 706 699 699 696 694 696 697 697 697 700 704 706 711 717 721 725 730 735 739 743 746 750 753 756
752 764 760 752 758 757 761 757 757 759 764 748 752 712 716 715 721 715 711 710 708 700 699 696 694 695 696 696 694 696 699 704 709 714 718 720 724 727 732 736 739 743 747 751
754 757 759 758 763 760 759 752 754 758 754 759 725 720 717 714 713 701 704 701 705 700 698 696 696 697 695 695 692 694 697 701 704 708 712 716 721 725 729 733 736 739 743 747
761 761 769 763 762 762 763 764 749 743 740 745 731 724 700 710 712 706 701 704 705 701 697 694 695 695 694 693 692 693 695 699 702 705 708 713 716 719 722 726 729 732 736 740
759 763 763 757 762 764 757 744 750 738 734 727 733 697 681 707 707 704 698 690 698 697 694 692 691 690 689 690 691 692 694 697 700 703 706 709 713 715 717 720 723 726 728 732
762 765 765 765 772 755 723 722 720 724 720 717 716 696 694 696 696 696 695 694 692 692 692 688 688 685 687 690 691 693 695 697 700 702 704 706 708 711 714 715 719 722 724 726
754 763 771 790 776 756 714 721 725 729 713 707 696 683 685 697 704 684 681 685 681 681 680 682 682 682 685 689 690 692 693 696 698 699 702 704 706 709 712 713 715 717 719 721
758 755 774 784 765 789 727 709 712 714 709 688 687 681 687 700 705 663 662 666 673 673 674 677 678 678 683 686 688 689 690 694 696 698 700 703 704 705 707 710 713 716 719 722
765 759 753 753 761 756 728 712 711 732 687 685 680 688 686 691 679 656 657 663 662 663 668 673 676 677 681 685 688 687 689 693 695 695 695 698 701 703 704 708 712 718 720 722
758 768 775 759 778 762 712 715 710 708 706 700 699 694 690 682 668 664 658 663 664 667 669 670 673 677 681 684 686 686 688 690 691 692 693 695 698 701 704 708 712 715 719 722
746 734 747 742 732 715 710 711 725 726 722 717 716 707 703 691 679 674 669 666 665 667 669 671 674 678 680 682 684 684 685 687 689 692 694 695 697 700 702 706 712 716 719 720
729 725 732 719 708 717 724 726 731 731 729 724 720 716 708 699 688 681 679 675 674 674 674 677 678 678 682 684 685 688 689 691 693 695 695 696 698 701 706 709 712 715 717 719
728 725 729 719 715 717 723 728 729 728 728 724 720 717 711 705 690 689 687 686 683 685 682 682 687 685 684 687 689 690 692 694 695 696 697 699 701 704 705 707 713 714 715 716
730 718 719 711 733 727 723 726 729 727 726 726 722 710 711 709 698 697 695 697 690 689 690 688 690 694 688 687 690 692 694 695 698 700 699 697 700 705 707 710 712 713 716 718